{"data":{"norad_id":51467,"epoch":"2026-05-25T02:40:40.565568Z","epoch_age_seconds":69344,"freshness":"FRESH","line1":"1 51467U 22010M   26145.11158062  .00008262  00000+0  53712-3 0  9998","line2":"2 51467  53.2134 296.0480 0002121  87.4481 272.6754 15.08801117238053","mean_motion":15.08801117,"eccentricity":0.0002121,"inclination_deg":53.2134,"raan_deg":296.048,"arg_perigee_deg":87.4481,"mean_anomaly_deg":272.6754,"bstar":0.00053712,"rev_number":23805,"period_min":95.440014179152,"perigee_km":538.39493365301,"apogee_km":541.32954893117,"semimajor_km":6917.9992412921,"source":"CELESTRAK","updated_at":"2026-05-25T13:38:16.918710Z"}}